Limon, CO

5:44 PM MDT on August 29, 2016 (GMT -0600)
Limon Municipal

Weather History for KLIC - February, 2013

Change the Weather History Date:

Sunday, February 3, 2013

  Actual Average Record
Temperature  
Mean Temperature 32 °F -  
Max Temperature 50 °F - 60 °F (2015)
Min Temperature 14 °F - -18 °F (2011)
Degree Days  
Heating Degree Days 33    
Month to date heating degree days 98  
Cooling Degree Days 0    
Month to date cooling degree days 0  
Moisture  
Dew Point 17 °F    
Average Humidity 64    
Maximum Humidity 92    
Minimum Humidity 25    
Precipitation  
Precipitation 0.00 in - 0.08 in (2012)
Month to date precipitation 0.00  
Year to date precipitation 0.29  
Sea Level Pressure  
Sea Level Pressure 30.07 in    
Wind  
Wind Speed 3 mph (WSW)    
Max Wind Speed 13 mph    
Max Gust Speed 16 mph    
Visibility 10 miles    
Events      
T = Trace of Precipitation, MM = Missing Value Source: NWS Daily Summary

Daily Weather History Graph

Daily Weather History Graph

Search for Another Location

Airport or City:

Trip Planner

Search our weather history database for the weather conditions in past years. The results will help you decide how hot, cold, wet, or windy it might be!

Date:

Astronomy

Feb. 03, 2013 Rise Set
Actual Time 6:59 AM MST 5:18 PM MST
Civil Twilight 6:31 AM MST 5:46 PM MST
Nautical Twilight 5:59 AM MST 6:18 PM MST
Astronomical Twilight 5:28 AM MST 6:49 PM MST
Moon 12:29 AM MST (2/3) 10:57 AM MST (2/3)
Length of Visible Light 11h 14m
Length of Day
10h 18m
Waning Gibbous, 48% of the Moon is Illuminated
Feb 3
Waning Gibbous
Feb 10
New
Feb 17
First Quarter
Feb 25
Full
Mar 4
Last Quarter

Hourly Weather History & Observations

Time (MST) Temp. Windchill Dew Point Humidity Pressure Visibility Wind Dir Wind Speed Gust Speed Precip Events Conditions
12:55 AM 16.0 °F - 14.0 °F 92% 30.29 in 10.0 mi Calm Calm - N/A   Clear
1:55 AM 15.1 °F 9.4 °F 12.0 °F 88% 30.26 in 10.0 mi North 3.5 mph - N/A   Clear
2:55 AM 16.0 °F - 14.0 °F 92% 30.23 in 10.0 mi Calm Calm - N/A   Clear
3:55 AM 15.1 °F - 12.9 °F 91% 30.22 in 10.0 mi Calm Calm - N/A   Clear
4:55 AM 16.0 °F - 12.9 °F 88% 30.25 in 10.0 mi Calm Calm - N/A   Clear
5:55 AM 18.0 °F - 12.9 °F 81% 30.26 in 10.0 mi Calm Calm - N/A   Clear
6:55 AM 24.1 °F 16.0 °F 17.1 °F 75% 30.23 in 10.0 mi SSW 6.9 mph - N/A   Clear
7:55 AM 26.1 °F - 19.9 °F 78% 30.22 in 10.0 mi Calm Calm - N/A   Clear
8:55 AM 34.0 °F 28.8 °F 23.0 °F 64% 30.17 in 10.0 mi South 5.8 mph - N/A   Clear
9:55 AM 39.0 °F 31.8 °F 21.0 °F 49% 30.12 in 10.0 mi South 11.5 mph - N/A   Clear
10:55 AM 43.0 °F 36.8 °F 19.0 °F 38% 30.09 in 10.0 mi South 11.5 mph - N/A   Clear
11:55 AM 46.9 °F - 18.0 °F 32% 30.03 in 10.0 mi South 10.4 mph - N/A   Clear
12:55 PM 48.9 °F - 16.0 °F 27% 29.96 in 10.0 mi South 5.8 mph - N/A   Clear
1:55 PM 48.9 °F - 15.1 °F 26% 29.94 in 10.0 mi South 4.6 mph - N/A   Clear
2:55 PM 48.9 °F - 14.0 °F 25% 29.91 in 10.0 mi SSW 4.6 mph - N/A   Clear
3:55 PM 48.0 °F - 16.0 °F 28% 29.91 in 10.0 mi SSE 4.6 mph - N/A   Clear
4:55 PM 42.1 °F - 19.0 °F 40% 29.93 in 10.0 mi Calm Calm - N/A   Clear
5:55 PM 32.0 °F 27.5 °F 21.9 °F 66% 29.96 in 10.0 mi North 4.6 mph - N/A   Clear
6:55 PM 30.0 °F 23.2 °F 23.0 °F 75% 29.95 in 10.0 mi North 6.9 mph - N/A   Clear
7:55 PM 28.0 °F 21.7 °F 21.0 °F 75% 29.95 in 10.0 mi NNW 5.8 mph - N/A   Clear
8:55 PM 25.0 °F 20.7 °F 19.0 °F 78% 29.94 in 10.0 mi NNW 3.5 mph - N/A   Clear
9:55 PM 24.1 °F 18.2 °F 19.0 °F 81% 29.95 in 10.0 mi North 4.6 mph - N/A   Clear
10:55 PM 27.0 °F 18.0 °F 19.0 °F 72% 29.94 in 10.0 mi North 9.2 mph - N/A   Clear
11:55 PM 21.9 °F 13.4 °F 17.1 °F 82% 29.96 in 10.0 mi NNW 6.9 mph - N/A   Clear